Regional Weather Roundup
Issued by NWS

Home | Current Version | Previous Version | Graphics & Text | Print | Product List | Glossary On
Versions: 1 2 3 4 5 6 7 8 9 10 11 12 13 14 15 16 17 18 19 20 21 22 23 24 25 26 27 28 29 30 31 32 33 34 35 36 37 38 39 40 41 42 43 44 45 46 47 48 49 50
000
ASUS43 KLSX 272159
RWRMO

WEATHER SUMMARY FOR MISSOURI
NATIONAL WEATHER SERVICE SPRINGFIELD MO
500 PM CDT MON JUL 27 2015

NOTE: "FAIR" INDICATES FEW OR NO CLOUDS BELOW 12,000 FEET WITH NO
       SIGNIFICANT WEATHER AND/OR OBSTRUCTIONS TO VISIBILITY.
       CURRENT SKY AND/OR WEATHER CONDITIONS ARE NOT AVAILABLE FOR
       CHILLICOTHE AND FARMINGTON.

MOZ001>031-035>038-043-044-053-054-272300-
...NORTHERN AND WESTERN MISSOURI...

CITY           SKY/WX    TMP DP  RH WIND       PRES   REMARKS
KANSAS CTY INT PTSUNNY   88  78  72 S8        29.88F HX 101
KANSAS C DTWN  FAIR      92  76  59 S10       29.85F HX 104
LEE`S SUMMIT   FAIR      91  73  55 S9        29.88F HX  99
ST JOSEPH      FAIR      90  77  65 S10       29.86F HX 103
KIRKSVILLE     PTSUNNY   74  69  85 VRB6G26   29.98R THUNDER

$$
MOZ066>068-077>081-088>096-101>105-272300-
...SOUTHWEST MISSOURI...

CITY           SKY/WX    TMP DP  RH WIND       PRES   REMARKS
SPRINGFIELD    PTSUNNY   91  74  57 S6        29.93F HX 100
JOPLIN         PTSUNNY   92  74  55 S8        29.91F HX 101

$$
MOZ032>034-039>042-045>050-055>058-069>072-272300-
...CENTRAL MISSOURI...

CITY           SKY/WX    TMP DP  RH WIND       PRES   REMARKS
COLUMBIA       FAIR      91  77  63 S7        29.90F HX 104
JEFFERSON CITY FAIR      93  72  50 SW9       29.87F HX 101
ROLLA          FAIR      92  74  55 SW8       29.91F HX 101
SEDALIA        FAIR      95  73  48 S9        29.90F HX 104
OSAGE BEACH    FAIR      95  73  49 SW8       29.91F HX 105

$$
MOZ051-052-059>065-272300-
...EAST CENTRAL MISSOURI...

CITY           SKY/WX    TMP DP  RH WIND       PRES   REMARKS
ST LOUIS INTL  PTSUNNY   94  77  57 E9        29.90S HX 108
SPIRIT OF STL  PTSUNNY   93  77  59 CALM      29.87F THUNDER HX 107
ST CHARLES     FAIR      92  80  68 NE9       29.87F HX 110

$$
MOZ072>076-082>087-097>100-106>115-272300-
...SOUTH CENTRAL AND SOUTHEAST MISSOURI...

CITY           SKY/WX    TMP DP  RH WIND       PRES   REMARKS
CAPE GIRARDEAU FAIR      91  79  67 S8        29.89F HX 107
FARMINGTON     FAIR      93  75  55 SW6       29.95S HX 104
POPLAR BLUFF   FAIR      92  78  63 SW9       29.89F HX 107
WEST PLAINS    PTSUNNY   93  74  53 SW7       29.95F HX 103

$$


USA.gov is the U.S. government's official web portal to all federal, state and local government web resources and services.